Weather History for KPWM - October, 2011

Change the Weather History Date:

Saturday, October 1, 2011

  Actual Average Record
Temperature  
Mean Temperature 58 °F 54 °F  
Max Temperature 65 °F 64 °F 85 °F (1927)
Min Temperature 51 °F 44 °F 27 °F (1963)
Degree Days  
Heating Degree Days 7 11  
Month to date heating degree days 7 11  
Since 1 July heating degree days 112 232  
Cooling Degree Days 0 0  
Month to date cooling degree days 0 0  
Year to date cooling degree days 449 358  
Growing Degree Days 8 (Base 50)    
Moisture  
Dew Point 60 °F    
Average Humidity 94    
Maximum Humidity 100    
Minimum Humidity 87    
Precipitation  
Precipitation 0.29 in 0.15 in 2.12 in (1977)
Month to date precipitation 0.29 0.15  
Year to date precipitation 39.05 33.58  
Snow  
Snow 0.00 in 0.00 in T in (1992)
Month to date snowfall 0.0 0.0  
Since 1 July snowfall 0.0 0.0  
Since 1 September snowfall 0.0 0.0  
Snow Depth 0.00 in    
Sea Level Pressure  
Sea Level Pressure 29.71 in    
Wind  
Wind Speed 8 mph (NE)    
Max Wind Speed 17 mph    
Max Gust Speed 24 mph    
Visibility 4 miles    
Events Rain    
T = Trace of Precipitation, MM = Missing Value Source: NWS Daily Summary

Daily Weather History Graph

Daily Weather History Graph

Search for Another Location

Airport or City:

Trip Planner

Search our weather history database for the weather conditions in past years. The results will help you decide how hot, cold, wet, or windy it might be!

Date:

Astronomy

Oct. 01, 2011 Rise Set
Actual Time 6:38 AM EDT 6:22 PM EDT
Civil Twilight 6:09 AM EDT 6:51 PM EDT
Nautical Twilight 5:36 AM EDT 7:24 PM EDT
Astronomical Twilight 5:02 AM EDT 7:58 PM EDT
Moon 11:51 AM EDT (10/1) 9:05 PM EDT (10/1)
Length of Visible Light 12h 41m
Length of Day
11h 44m
Waxing Crescent, 24% of the Moon is Illuminated
Oct 1
Waxing Crescent
Oct 3
First Quarter
Oct 11
Full
Oct 19
Last Quarter
Oct 26
New

Hourly Weather History & Observations

Time (EDT) Temp. Dew Point Humidity Pressure Visibility Wind Dir Wind Speed Gust Speed Precip Events Conditions
12:49 AM 62.6 °F 60.8 °F 94% 29.71 in 8.0 mi North 4.6 mph - N/A   Mostly Cloudy
12:51 AM 63.0 °F 60.1 °F 90% 29.71 in 8.0 mi North 3.5 mph - N/A   Mostly Cloudy
12:58 AM 62.6 °F 60.8 °F 94% 29.71 in 8.0 mi Calm Calm - N/A   Mostly Cloudy
1:51 AM 64.0 °F 61.0 °F 90% 29.71 in 7.0 mi ENE 3.5 mph - N/A   Overcast
2:51 AM 64.0 °F 62.1 °F 93% 29.70 in 6.0 mi NE 5.8 mph - N/A   Overcast
3:51 AM 64.0 °F 62.1 °F 93% 29.69 in 5.0 mi ENE 4.6 mph - 0.01 in Rain Rain
4:14 AM 64.4 °F 62.6 °F 94% 29.68 in 4.0 mi East 5.8 mph - 0.03 in Rain Light Rain
4:51 AM 63.0 °F 62.1 °F 97% 29.68 in 3.0 mi NNE 9.2 mph - 0.05 in Rain Light Rain
5:10 AM 62.6 °F 62.6 °F 100% 29.68 in 2.5 mi NE 6.9 mph - 0.00 in   Overcast
5:21 AM 62.6 °F 62.6 °F 100% 29.68 in 3.0 mi NE 6.9 mph - 0.00 in   Overcast
5:51 AM 63.0 °F 62.1 °F 97% 29.68 in 4.0 mi NE 5.8 mph - 0.00 in   Overcast
5:59 AM 62.6 °F 62.6 °F 100% 29.69 in 0.8 mi NE 4.6 mph - N/A   Overcast
6:51 AM 63.0 °F 62.1 °F 97% 29.68 in 1.5 mi NE 5.8 mph - 0.00 in Rain Light Rain
7:51 AM 63.0 °F 61.0 °F 93% 29.66 in 1.5 mi NNE 11.5 mph 18.4 mph 0.03 in Rain Light Rain
8:51 AM 63.0 °F 61.0 °F 93% 29.68 in 1.5 mi NE 8.1 mph - 0.01 in Rain Light Rain
9:51 AM 63.0 °F 61.0 °F 93% 29.66 in 1.5 mi NE 8.1 mph - 0.00 in   Overcast
10:20 AM 62.6 °F 60.8 °F 94% 29.63 in 5.0 mi NE 11.5 mph - N/A   Mostly Cloudy
10:51 AM 63.0 °F 61.0 °F 93% 29.65 in 5.0 mi NE 9.2 mph - 0.00 in Rain Light Rain
11:51 AM 63.0 °F 61.0 °F 93% 29.66 in 10.0 mi NE 5.8 mph - 0.00 in   Overcast
12:51 PM 63.0 °F 61.0 °F 93% 29.66 in 3.0 mi NE 8.1 mph - 0.02 in Rain Rain
1:33 PM 62.6 °F 62.6 °F 100% 29.65 in 3.0 mi ENE 8.1 mph - 0.01 in Rain Light Rain
1:51 PM 63.0 °F 61.0 °F 93% 29.65 in 3.0 mi ENE 9.2 mph - 0.01 in   Overcast
2:51 PM 63.0 °F 62.1 °F 97% 29.65 in 1.2 mi NE 6.9 mph - 0.02 in Rain Rain
3:51 PM 64.0 °F 62.1 °F 93% 29.65 in 2.0 mi ENE 6.9 mph - 0.02 in   Overcast
4:51 PM 64.0 °F 63.0 °F 96% 29.68 in 1.2 mi NE 5.8 mph - N/A   Overcast
5:48 PM 62.6 °F 62.6 °F 100% 29.70 in 1.0 mi East 5.8 mph - 0.02 in Rain Light Rain
5:51 PM 63.0 °F 62.1 °F 97% 29.70 in 1.0 mi Variable 5.8 mph - 0.02 in Rain Light Rain
6:51 PM 63.0 °F 62.1 °F 97% 29.72 in 1.0 mi East 6.9 mph - 0.03 in Rain Light Rain
7:33 PM 57.2 °F 57.2 °F 100% 29.75 in 1.0 mi NNE 12.7 mph 20.7 mph 0.05 in Rain Light Rain
7:51 PM 57.0 °F 55.0 °F 93% 29.76 in 1.2 mi NNE 17.3 mph 21.9 mph 0.06 in Rain Light Rain
8:04 PM 55.4 °F 53.6 °F 94% 29.76 in 4.0 mi NNE 13.8 mph 21.9 mph 0.00 in Rain Light Rain
8:51 PM 55.0 °F 53.1 °F 93% 29.80 in 4.0 mi NNE 11.5 mph 23.0 mph 0.01 in Rain Light Rain
9:51 PM 54.0 °F 52.0 °F 93% 29.82 in 4.0 mi NNE 8.1 mph - 0.00 in   Overcast
10:39 PM 53.6 °F 51.8 °F 94% 29.83 in 2.0 mi Variable 6.9 mph - 0.00 in   Overcast
10:51 PM 52.0 °F 51.1 °F 97% 29.84 in 2.0 mi North 6.9 mph - 0.00 in   Overcast
11:51 PM 51.1 °F 50.0 °F 96% 29.86 in 2.5 mi NNE 13.8 mph 20.7 mph N/A   Overcast
11:58 PM 51.8 °F 50.0 °F 94% 29.85 in 10.0 mi NNE 6.9 mph 20.7 mph N/A   Overcast